OneWeb SL0294

operational
NORAD ID: 49083 Int'l Des: 2021-075 Owner: ONEWEBN Country: UK Constellation: oneweb
LEOCIRCULARPOLARONEWEB_TYPE

关于 OneWeb SL0294

正在加载描述...

实时位置

正在加载3D地球...

即将过境

高度历史

Altitude vs Time

uPlot chart will show altitude changes over time

两行轨道根数

1 49083U 21075J 25304.31298122 .00000176 00000-0 45481-3 0 9990
2 49083 87.8975 36.1211 0002200 94.6558 265.4822 13.12445331204557
Epoch: Oct 31, 2025 • Age: 5 hours

当前状态

高度 1237.9 km
速度 7.23 km/s
星下点 -58.80°S, 6.27°W
发射日期 Aug 21, 2021
运行时间 4.1 years
类型 internet

技术详情

分类 Payload
质量 148.00 kg
干质量 140.00 kg
总质量 148.00 kg
长度 1.30 m
直径 1.00 m
跨度 5.00 m
形状 Trapezoid+2 pan
制造商 ONEWUS
平台类型 ARROW
阶段状态 In Orbit
所有者/国家 ONEWEBN/UK

大型星座

Loading constellations...